owner,sensor,date,latitude,longitude,vertical_datum,wind_speed,wind_to_direction,wind_speed_of_gust,qcFlag 
TCOON,ioos:station:TCOON:518:1,2019-01-01T00:00:00Z,29.5150,-94.5133,0.0,1.2,263.0,1.6,'11111222,11111222,11111222' 
TCOON,ioos:station:TCOON:518:1,2019-01-01T00:06:00Z,29.5150,-94.5133,0.0,1.1,293.0,1.6,'11111222,11111222,11111222' 
TCOON,ioos:station:TCOON:518:1,2019-01-01T00:12:00Z,29.5150,-94.5133,0.0,0.6,276.0,1.2,'11111222,11111222,11111222' 
TCOON,ioos:station:TCOON:518:1,2019-01-01T00:18:00Z,29.5150,-94.5133,0.0,0.5,229.0,1.0,'11111222,11111222,11111222' 
TCOON,ioos:station:TCOON:518:1,2019-01-01T00:24:00Z,29.5150,-94.5133,0.0,0.5,229.0,1.0,'1111122,1111122,1111122' 
TCOON,ioos:station:TCOON:518:1,2019-01-01T00:30:00Z,29.5150,-94.5133,0.0,0.8,302.0,1.0,'11111222,11111222,11111222' 
TCOON,ioos:station:TCOON:518:1,2019-01-01T00:36:00Z,29.5150,-94.5133,0.0,1.3,308.0,1.5,'11111222,11111222,11111222' 
TCOON,ioos:station:TCOON:518:1,2019-01-01T00:42:00Z,29.5150,-94.5133,0.0,0.5,292.0,1.2,'11111222,11111222,11111222' 
TCOON,ioos:station:TCOON:518:1,2019-01-01T00:48:00Z,29.5150,-94.5133,0.0,0.3,150.0,0.5,'11111222,11111222,11111222' 
TCOON,ioos:station:TCOON:518:1,2019-01-01T00:54:00Z,29.5150,-94.5133,0.0,1.4,289.0,1.6,'11111222,11111222,11111222' 
TCOON,ioos:station:TCOON:518:1,2019-01-01T01:00:00Z,29.5150,-94.5133,0.0,0.9,276.0,1.4,'11111222,11111222,11111222' 
TCOON,ioos:station:TCOON:518:1,2019-01-01T01:06:00Z,29.5150,-94.5133,0.0,1.0,300.0,1.4,'11111222,11111222,11111222' 
TCOON,ioos:station:TCOON:518:1,2019-01-01T01:12:00Z,29.5150,-94.5133,0.0,0.3,285.0,1.7,'11111222,11111222,11111222' 
TCOON,ioos:station:TCOON:518:1,2019-01-01T01:18:00Z,29.5150,-94.5133,0.0,0.4,290.0,1.1,'11111222,11111222,11111222' 
TCOON,ioos:station:TCOON:518:1,2019-01-01T01:24:00Z,29.5150,-94.5133,0.0,0.4,290.0,1.1,'1111122,1111122,1111122' 
TCOON,ioos:station:TCOON:518:1,2019-01-01T01:30:00Z,29.5150,-94.5133,0.0,0.7,279.0,1.2,'11111222,11111222,11111222' 
TCOON,ioos:station:TCOON:518:1,2019-01-01T01:36:00Z,29.5150,-94.5133,0.0,0.6,259.0,1.1,'11111222,11111222,11111222' 
TCOON,ioos:station:TCOON:518:1,2019-01-01T01:42:00Z,29.5150,-94.5133,0.0,1.1,299.0,1.3,'11111222,11111222,11111222' 
TCOON,ioos:station:TCOON:518:1,2019-01-01T01:48:00Z,29.5150,-94.5133,0.0,0.9,259.0,1.4,'11111222,11111222,11111222' 
TCOON,ioos:station:TCOON:518:1,2019-01-01T01:54:00Z,29.5150,-94.5133,0.0,0.7,261.0,0.9,'11111222,11111222,11111222' 
TCOON,ioos:station:TCOON:518:1,2019-01-01T02:00:00Z,29.5150,-94.5133,0.0,0.4,227.0,0.9,'11111222,11111222,11111222' 
TCOON,ioos:station:TCOON:518:1,2019-01-01T02:06:00Z,29.5150,-94.5133,0.0,0.9,263.0,1.1,'11111222,11111222,11111222' 
TCOON,ioos:station:TCOON:518:1,2019-01-01T02:12:00Z,29.5150,-94.5133,0.0,1.1,252.0,1.5,'11111222,11111222,11111222' 
TCOON,ioos:station:TCOON:518:1,2019-01-01T02:18:00Z,29.5150,-94.5133,0.0,1.5,282.0,1.9,'11111222,11111222,11111222' 
TCOON,ioos:station:TCOON:518:1,2019-01-01T02:24:00Z,29.5150,-94.5133,0.0,1.5,282.0,1.9,'1111122,1111122,1111122' 
TCOON,ioos:station:TCOON:518:1,2019-01-01T02:30:00Z,29.5150,-94.5133,0.0,0.9,274.0,2.1,'11111222,11111222,11111222' 
TCOON,ioos:station:TCOON:518:1,2019-01-01T02:36:00Z,29.5150,-94.5133,0.0,0.2,236.0,1.1,'11111222,11111222,11111222' 
TCOON,ioos:station:TCOON:518:1,2019-01-01T02:42:00Z,29.5150,-94.5133,0.0,0.5,270.0,0.9,'11111222,11111222,11111222' 
TCOON,ioos:station:TCOON:518:1,2019-01-01T02:48:00Z,29.5150,-94.5133,0.0,1.0,258.0,1.4,'11111222,11111222,11111222' 
TCOON,ioos:station:TCOON:518:1,2019-01-01T02:54:00Z,29.5150,-94.5133,0.0,1.1,271.0,1.6,'11111222,11111222,11111222' 
TCOON,ioos:station:TCOON:518:1,2019-01-01T03:00:00Z,29.5150,-94.5133,0.0,0.5,244.0,1.3,'11111222,11111222,11111222' 
TCOON,ioos:station:TCOON:518:1,2019-01-01T03:06:00Z,29.5150,-94.5133,0.0,0.9,279.0,1.0,'11111222,11111222,11111222' 
TCOON,ioos:station:TCOON:518:1,2019-01-01T03:12:00Z,29.5150,-94.5133,0.0,1.3,246.0,1.5,'11111222,11111222,11111222' 
TCOON,ioos:station:TCOON:518:1,2019-01-01T03:18:00Z,29.5150,-94.5133,0.0,1.2,275.0,1.6,'11111222,11111222,11111222' 
TCOON,ioos:station:TCOON:518:1,2019-01-01T03:24:00Z,29.5150,-94.5133,0.0,1.2,275.0,1.6,'1111122,1111122,1111122' 
TCOON,ioos:station:TCOON:518:1,2019-01-01T03:30:00Z,29.5150,-94.5133,0.0,1.2,267.0,1.6,'11111222,11111222,11111222' 
TCOON,ioos:station:TCOON:518:1,2019-01-01T03:36:00Z,29.5150,-94.5133,0.0,0.9,259.0,1.4,'11111222,11111222,11111222' 
TCOON,ioos:station:TCOON:518:1,2019-01-01T03:42:00Z,29.5150,-94.5133,0.0,0.9,254.0,1.2,'11111222,11111222,11111222' 
TCOON,ioos:station:TCOON:518:1,2019-01-01T03:48:00Z,29.5150,-94.5133,0.0,1.3,261.0,1.5,'11111222,11111222,11111222' 
TCOON,ioos:station:TCOON:518:1,2019-01-01T03:54:00Z,29.5150,-94.5133,0.0,0.6,265.0,1.4,'11111222,11111222,11111222' 
TCOON,ioos:station:TCOON:518:1,2019-01-01T04:00:00Z,29.5150,-94.5133,0.0,1.1,265.0,1.2,'11111222,11111222,11111222' 
TCOON,ioos:station:TCOON:518:1,2019-01-01T04:06:00Z,29.5150,-94.5133,0.0,0.9,262.0,1.0,'11111222,11111222,11111222' 
TCOON,ioos:station:TCOON:518:1,2019-01-01T04:12:00Z,29.5150,-94.5133,0.0,0.7,259.0,1.0,'11111222,11111222,11111222' 
TCOON,ioos:station:TCOON:518:1,2019-01-01T04:18:00Z,29.5150,-94.5133,0.0,0.4,258.0,0.8,'11111222,11111222,11111222' 
TCOON,ioos:station:TCOON:518:1,2019-01-01T04:24:00Z,29.5150,-94.5133,0.0,0.4,258.0,0.8,'1111122,1111122,1111122' 
TCOON,ioos:station:TCOON:518:1,2019-01-01T04:30:00Z,29.5150,-94.5133,0.0,0.0,233.0,0.0,'11111222,11111222,11111222' 
TCOON,ioos:station:TCOON:518:1,2019-01-01T04:36:00Z,29.5150,-94.5133,0.0,0.2,328.0,0.6,'11111222,11111222,11111222' 
TCOON,ioos:station:TCOON:518:1,2019-01-01T04:42:00Z,29.5150,-94.5133,0.0,0.5,328.0,0.6,'11111222,11111222,11111222' 
TCOON,ioos:station:TCOON:518:1,2019-01-01T04:48:00Z,29.5150,-94.5133,0.0,0.7,345.0,0.8,'11111222,11111222,11111222' 
TCOON,ioos:station:TCOON:518:1,2019-01-01T04:54:00Z,29.5150,-94.5133,0.0,0.0,345.0,0.7,'11111222,11111222,11111222' 
TCOON,ioos:station:TCOON:518:1,2019-01-01T05:00:00Z,29.5150,-94.5133,0.0,1.0,131.0,1.1,'11111222,11111222,11111222' 
TCOON,ioos:station:TCOON:518:1,2019-01-01T05:06:00Z,29.5150,-94.5133,0.0,1.1,170.0,1.2,'11111222,11111222,11111222' 
TCOON,ioos:station:TCOON:518:1,2019-01-01T05:12:00Z,29.5150,-94.5133,0.0,0.3,218.0,1.0,'11111222,11111222,11111222' 
TCOON,ioos:station:TCOON:518:1,2019-01-01T05:18:00Z,29.5150,-94.5133,0.0,0.0,218.0,0.1,'11111222,11111222,11111222' 
TCOON,ioos:station:TCOON:518:1,2019-01-01T05:24:00Z,29.5150,-94.5133,0.0,0.0,218.0,0.1,'1114422,1111122,1111122' 
TCOON,ioos:station:TCOON:518:1,2019-01-01T05:30:00Z,29.5150,-94.5133,0.0,0.0,306.0,0.4,'11111222,11111222,11111222' 
TCOON,ioos:station:TCOON:518:1,2019-01-01T05:36:00Z,29.5150,-94.5133,0.0,0.0,306.0,0.0,'11111222,11111222,11111222' 
TCOON,ioos:station:TCOON:518:1,2019-01-01T05:42:00Z,29.5150,-94.5133,0.0,0.6,10.0,0.9,'11111222,11111222,11111222' 
TCOON,ioos:station:TCOON:518:1,2019-01-01T05:48:00Z,29.5150,-94.5133,0.0,1.3,22.0,1.3,'11111222,11111222,11111222' 
TCOON,ioos:station:TCOON:518:1,2019-01-01T05:54:00Z,29.5150,-94.5133,0.0,1.6,37.0,1.8,'11111222,11111222,11111222' 
TCOON,ioos:station:TCOON:518:1,2019-01-01T06:00:00Z,29.5150,-94.5133,0.0,2.0,35.0,2.1,'11111222,11111222,11111222' 
TCOON,ioos:station:TCOON:518:1,2019-01-01T06:06:00Z,29.5150,-94.5133,0.0,1.7,36.0,2.0,'11111222,11111222,11111222' 
TCOON,ioos:station:TCOON:518:1,2019-01-01T06:12:00Z,29.5150,-94.5133,0.0,1.0,39.0,1.6,'11111222,11111222,11111222' 
TCOON,ioos:station:TCOON:518:1,2019-01-01T06:18:00Z,29.5150,-94.5133,0.0,1.1,21.0,1.3,'11111222,11111222,11111222' 
TCOON,ioos:station:TCOON:518:1,2019-01-01T06:24:00Z,29.5150,-94.5133,0.0,1.1,21.0,1.3,'1111122,1111122,1111122' 
TCOON,ioos:station:TCOON:518:1,2019-01-01T06:30:00Z,29.5150,-94.5133,0.0,0.4,60.0,1.1,'11111222,11111222,11111222' 
TCOON,ioos:station:TCOON:518:1,2019-01-01T06:36:00Z,29.5150,-94.5133,0.0,0.3,51.0,0.6,'11111222,11111222,11111222' 
TCOON,ioos:station:TCOON:518:1,2019-01-01T06:42:00Z,29.5150,-94.5133,0.0,0.7,30.0,0.9,'11111222,11111222,11111222' 
TCOON,ioos:station:TCOON:518:1,2019-01-01T06:48:00Z,29.5150,-94.5133,0.0,0.5,47.0,0.6,'11111222,11111222,11111222' 
TCOON,ioos:station:TCOON:518:1,2019-01-01T06:54:00Z,29.5150,-94.5133,0.0,0.3,7.0,0.7,'11111222,11111222,11111222' 
TCOON,ioos:station:TCOON:518:1,2019-01-01T07:00:00Z,29.5150,-94.5133,0.0,0.0,7.0,0.3,'11111222,11111222,11111222' 
TCOON,ioos:station:TCOON:518:1,2019-01-01T07:06:00Z,29.5150,-94.5133,0.0,0.0,7.0,0.0,'11111222,11111222,11111222' 
TCOON,ioos:station:TCOON:518:1,2019-01-01T07:12:00Z,29.5150,-94.5133,0.0,0.3,90.0,0.5,'11111222,11111222,11111222' 
TCOON,ioos:station:TCOON:518:1,2019-01-01T07:18:00Z,29.5150,-94.5133,0.0,1.0,44.0,1.1,'11111222,11111222,11111222' 
TCOON,ioos:station:TCOON:518:1,2019-01-01T07:24:00Z,29.5150,-94.5133,0.0,1.0,44.0,1.1,'1111122,1111122,1111122' 
TCOON,ioos:station:TCOON:518:1,2019-01-01T07:30:00Z,29.5150,-94.5133,0.0,0.4,14.0,0.5,'11111222,11111222,11111222' 
TCOON,ioos:station:TCOON:518:1,2019-01-01T07:36:00Z,29.5150,-94.5133,0.0,0.7,360.0,0.8,'11111222,11144222,11111222' 
TCOON,ioos:station:TCOON:518:1,2019-01-01T07:42:00Z,29.5150,-94.5133,0.0,1.6,343.0,1.6,'11111222,11111222,11111222' 
TCOON,ioos:station:TCOON:518:1,2019-01-01T07:48:00Z,29.5150,-94.5133,0.0,1.2,7.0,1.6,'11111222,11111222,11111222' 
TCOON,ioos:station:TCOON:518:1,2019-01-01T07:54:00Z,29.5150,-94.5133,0.0,1.1,57.0,1.2,'11111222,11111222,11111222' 
TCOON,ioos:station:TCOON:518:1,2019-01-01T08:00:00Z,29.5150,-94.5133,0.0,1.1,35.0,1.2,'11111222,11111222,11111222' 
TCOON,ioos:station:TCOON:518:1,2019-01-01T08:06:00Z,29.5150,-94.5133,0.0,0.9,59.0,1.2,'11111222,11111222,11111222' 
TCOON,ioos:station:TCOON:518:1,2019-01-01T08:12:00Z,29.5150,-94.5133,0.0,0.8,84.0,1.0,'11111222,11111222,11111222' 
TCOON,ioos:station:TCOON:518:1,2019-01-01T08:18:00Z,29.5150,-94.5133,0.0,1.0,73.0,1.2,'11111222,11111222,11111222' 
TCOON,ioos:station:TCOON:518:1,2019-01-01T08:24:00Z,29.5150,-94.5133,0.0,1.0,73.0,1.2,'1111122,1111122,1111122' 
TCOON,ioos:station:TCOON:518:1,2019-01-01T08:30:00Z,29.5150,-94.5133,0.0,1.3,93.0,1.5,'11111222,11111222,11111222' 
TCOON,ioos:station:TCOON:518:1,2019-01-01T08:36:00Z,29.5150,-94.5133,0.0,1.1,80.0,1.5,'11111222,11111222,11111222' 
TCOON,ioos:station:TCOON:518:1,2019-01-01T08:42:00Z,29.5150,-94.5133,0.0,1.6,87.0,1.8,'11111222,11111222,11111222' 
TCOON,ioos:station:TCOON:518:1,2019-01-01T08:48:00Z,29.5150,-94.5133,0.0,1.7,112.0,2.0,'11111222,11111222,11111222' 
TCOON,ioos:station:TCOON:518:1,2019-01-01T08:54:00Z,29.5150,-94.5133,0.0,2.4,98.0,2.7,'11111222,11111222,11111222' 
TCOON,ioos:station:TCOON:518:1,2019-01-01T09:00:00Z,29.5150,-94.5133,0.0,2.5,103.0,2.9,'11111222,11111222,11111222' 
TCOON,ioos:station:TCOON:518:1,2019-01-01T09:06:00Z,29.5150,-94.5133,0.0,2.0,63.0,2.7,'11111222,11111222,11111222' 
TCOON,ioos:station:TCOON:518:1,2019-01-01T09:12:00Z,29.5150,-94.5133,0.0,2.4,55.0,3.1,'11111222,11111222,11111222' 
TCOON,ioos:station:TCOON:518:1,2019-01-01T09:18:00Z,29.5150,-94.5133,0.0,2.3,49.0,2.8,'11111222,11111222,11111222' 
TCOON,ioos:station:TCOON:518:1,2019-01-01T09:24:00Z,29.5150,-94.5133,0.0,2.3,49.0,2.8,'1111122,1111122,1111122' 
TCOON,ioos:station:TCOON:518:1,2019-01-01T09:30:00Z,29.5150,-94.5133,0.0,2.8,43.0,3.3,'11111222,11111222,11111222' 
TCOON,ioos:station:TCOON:518:1,2019-01-01T09:36:00Z,29.5150,-94.5133,0.0,2.4,39.0,2.7,'11111222,11111222,11111222' 
TCOON,ioos:station:TCOON:518:1,2019-01-01T09:42:00Z,29.5150,-94.5133,0.0,2.7,26.0,3.3,'11111222,11111222,11111222' 
TCOON,ioos:station:TCOON:518:1,2019-01-01T09:48:00Z,29.5150,-94.5133,0.0,2.6,12.0,3.2,'11111222,11111222,11111222' 
TCOON,ioos:station:TCOON:518:1,2019-01-01T09:54:00Z,29.5150,-94.5133,0.0,2.7,24.0,3.1,'11111222,11111222,11111222' 
TCOON,ioos:station:TCOON:518:1,2019-01-01T10:00:00Z,29.5150,-94.5133,0.0,2.4,22.0,3.1,'11111222,11111222,11111222' 
TCOON,ioos:station:TCOON:518:1,2019-01-01T10:06:00Z,29.5150,-94.5133,0.0,2.2,5.0,3.1,'11111222,11111222,11111222' 
TCOON,ioos:station:TCOON:518:1,2019-01-01T10:12:00Z,29.5150,-94.5133,0.0,3.0,3.0,3.4,'11111222,11111222,11111222' 
TCOON,ioos:station:TCOON:518:1,2019-01-01T10:18:00Z,29.5150,-94.5133,0.0,2.8,7.0,3.5,'11111222,11111222,11111222' 
TCOON,ioos:station:TCOON:518:1,2019-01-01T10:24:00Z,29.5150,-94.5133,0.0,2.8,7.0,3.5,'1111122,1111122,1111122' 
TCOON,ioos:station:TCOON:518:1,2019-01-01T10:30:00Z,29.5150,-94.5133,0.0,2.6,9.0,3.1,'11111222,11111222,11111222' 
TCOON,ioos:station:TCOON:518:1,2019-01-01T10:36:00Z,29.5150,-94.5133,0.0,3.2,19.0,3.6,'11111222,11111222,11111222' 
TCOON,ioos:station:TCOON:518:1,2019-01-01T10:42:00Z,29.5150,-94.5133,0.0,2.4,10.0,3.1,'11111222,11111222,11111222' 
TCOON,ioos:station:TCOON:518:1,2019-01-01T10:48:00Z,29.5150,-94.5133,0.0,2.7,19.0,3.2,'11111222,11111222,11111222' 
TCOON,ioos:station:TCOON:518:1,2019-01-01T10:54:00Z,29.5150,-94.5133,0.0,3.0,15.0,3.5,'11111222,11111222,11111222' 
TCOON,ioos:station:TCOON:518:1,2019-01-01T11:00:00Z,29.5150,-94.5133,0.0,3.3,6.0,4.1,'11111222,11111222,11111222' 
TCOON,ioos:station:TCOON:518:1,2019-01-01T11:06:00Z,29.5150,-94.5133,0.0,3.5,10.0,4.2,'11111222,11111222,11111222' 
TCOON,ioos:station:TCOON:518:1,2019-01-01T11:12:00Z,29.5150,-94.5133,0.0,3.8,8.0,4.4,'11111222,11111222,11111222' 
TCOON,ioos:station:TCOON:518:1,2019-01-01T11:18:00Z,29.5150,-94.5133,0.0,3.9,17.0,4.6,'11111222,11111222,11111222' 
TCOON,ioos:station:TCOON:518:1,2019-01-01T11:24:00Z,29.5150,-94.5133,0.0,3.9,17.0,4.6,'1111122,1111122,1111122' 
TCOON,ioos:station:TCOON:518:1,2019-01-01T11:30:00Z,29.5150,-94.5133,0.0,4.7,31.0,5.4,'11111222,11111222,11111222' 
TCOON,ioos:station:TCOON:518:1,2019-01-01T11:36:00Z,29.5150,-94.5133,0.0,4.8,29.0,5.8,'11111222,11111222,11111222' 
TCOON,ioos:station:TCOON:518:1,2019-01-01T11:42:00Z,29.5150,-94.5133,0.0,4.5,21.0,5.4,'11111222,11111222,11111222' 
TCOON,ioos:station:TCOON:518:1,2019-01-01T11:48:00Z,29.5150,-94.5133,0.0,4.3,27.0,5.2,'11111222,11111222,11111222' 
TCOON,ioos:station:TCOON:518:1,2019-01-01T11:54:00Z,29.5150,-94.5133,0.0,4.7,29.0,5.2,'11111222,11111222,11111222' 
TCOON,ioos:station:TCOON:518:1,2019-01-01T12:00:00Z,29.5150,-94.5133,0.0,4.4,34.0,5.1,'11111222,11111222,11111222' 
TCOON,ioos:station:TCOON:518:1,2019-01-01T12:06:00Z,29.5150,-94.5133,0.0,3.8,34.0,5.0,'11111222,11111222,11111222' 
TCOON,ioos:station:TCOON:518:1,2019-01-01T12:12:00Z,29.5150,-94.5133,0.0,3.9,39.0,5.0,'11111222,11111222,11111222' 
TCOON,ioos:station:TCOON:518:1,2019-01-01T12:18:00Z,29.5150,-94.5133,0.0,4.3,36.0,5.5,'11111222,11111222,11111222' 
TCOON,ioos:station:TCOON:518:1,2019-01-01T12:24:00Z,29.5150,-94.5133,0.0,4.3,36.0,5.5,'1111122,1111122,1111122' 
TCOON,ioos:station:TCOON:518:1,2019-01-01T12:30:00Z,29.5150,-94.5133,0.0,4.3,24.0,5.5,'11111222,11111222,11111222' 
TCOON,ioos:station:TCOON:518:1,2019-01-01T12:36:00Z,29.5150,-94.5133,0.0,4.2,23.0,5.5,'11111222,11111222,11111222' 
TCOON,ioos:station:TCOON:518:1,2019-01-01T12:42:00Z,29.5150,-94.5133,0.0,4.6,22.0,5.4,'11111222,11111222,11111222' 
TCOON,ioos:station:TCOON:518:1,2019-01-01T12:48:00Z,29.5150,-94.5133,0.0,4.9,21.0,6.0,'11111222,11111222,11111222' 
TCOON,ioos:station:TCOON:518:1,2019-01-01T12:54:00Z,29.5150,-94.5133,0.0,5.0,20.0,5.9,'11111222,11111222,11111222' 
TCOON,ioos:station:TCOON:518:1,2019-01-01T13:00:00Z,29.5150,-94.5133,0.0,4.4,26.0,5.6,'11111222,11111222,11111222' 
TCOON,ioos:station:TCOON:518:1,2019-01-01T13:06:00Z,29.5150,-94.5133,0.0,4.4,24.0,5.3,'11111222,11111222,11111222' 
TCOON,ioos:station:TCOON:518:1,2019-01-01T13:12:00Z,29.5150,-94.5133,0.0,4.6,30.0,5.2,'11111222,11111222,11111222' 
TCOON,ioos:station:TCOON:518:1,2019-01-01T13:18:00Z,29.5150,-94.5133,0.0,4.4,31.0,5.3,'11111222,11111222,11111222' 
TCOON,ioos:station:TCOON:518:1,2019-01-01T13:24:00Z,29.5150,-94.5133,0.0,4.4,31.0,5.3,'1111122,1111122,1111122' 
TCOON,ioos:station:TCOON:518:1,2019-01-01T13:30:00Z,29.5150,-94.5133,0.0,5.1,27.0,6.2,'11111222,11111222,11111222' 
TCOON,ioos:station:TCOON:518:1,2019-01-01T13:36:00Z,29.5150,-94.5133,0.0,4.9,22.0,5.9,'11111222,11111222,11111222' 
TCOON,ioos:station:TCOON:518:1,2019-01-01T13:42:00Z,29.5150,-94.5133,0.0,4.2,30.0,5.5,'11111222,11111222,11111222' 
TCOON,ioos:station:TCOON:518:1,2019-01-01T13:48:00Z,29.5150,-94.5133,0.0,4.3,38.0,5.6,'11111222,11111222,11111222' 
TCOON,ioos:station:TCOON:518:1,2019-01-01T13:54:00Z,29.5150,-94.5133,0.0,4.6,37.0,6.0,'11111222,11111222,11111222' 
TCOON,ioos:station:TCOON:518:1,2019-01-01T14:00:00Z,29.5150,-94.5133,0.0,5.2,39.0,6.1,'11111222,11111222,11111222' 
TCOON,ioos:station:TCOON:518:1,2019-01-01T14:06:00Z,29.5150,-94.5133,0.0,5.4,38.0,6.6,'11111222,11111222,11111222' 
TCOON,ioos:station:TCOON:518:1,2019-01-01T14:12:00Z,29.5150,-94.5133,0.0,5.1,37.0,6.2,'11111222,11111222,11111222' 
TCOON,ioos:station:TCOON:518:1,2019-01-01T14:18:00Z,29.5150,-94.5133,0.0,5.1,28.0,6.5,'11111222,11111222,11111222' 
TCOON,ioos:station:TCOON:518:1,2019-01-01T14:24:00Z,29.5150,-94.5133,0.0,5.1,28.0,6.5,'1111122,1111122,1111122' 
TCOON,ioos:station:TCOON:518:1,2019-01-01T14:30:00Z,29.5150,-94.5133,0.0,5.0,33.0,5.7,'11111222,11111222,11111222' 
TCOON,ioos:station:TCOON:518:1,2019-01-01T14:36:00Z,29.5150,-94.5133,0.0,4.7,39.0,5.6,'11111222,11111222,11111222' 
TCOON,ioos:station:TCOON:518:1,2019-01-01T14:42:00Z,29.5150,-94.5133,0.0,5.2,37.0,5.8,'11111222,11111222,11111222' 
TCOON,ioos:station:TCOON:518:1,2019-01-01T14:48:00Z,29.5150,-94.5133,0.0,5.2,33.0,6.0,'11111222,11111222,11111222' 
TCOON,ioos:station:TCOON:518:1,2019-01-01T14:54:00Z,29.5150,-94.5133,0.0,5.6,30.0,6.4,'11111222,11111222,11111222' 
TCOON,ioos:station:TCOON:518:1,2019-01-01T15:00:00Z,29.5150,-94.5133,0.0,5.6,25.0,6.9,'11111222,11111222,11111222' 
TCOON,ioos:station:TCOON:518:1,2019-01-01T15:06:00Z,29.5150,-94.5133,0.0,5.4,20.0,6.5,'11111222,11111222,11111222' 
TCOON,ioos:station:TCOON:518:1,2019-01-01T15:12:00Z,29.5150,-94.5133,0.0,6.2,27.0,7.2,'11111222,11111222,11111222' 
TCOON,ioos:station:TCOON:518:1,2019-01-01T15:18:00Z,29.5150,-94.5133,0.0,6.3,32.0,6.8,'11111222,11111222,11111222' 
TCOON,ioos:station:TCOON:518:1,2019-01-01T15:24:00Z,29.5150,-94.5133,0.0,6.3,32.0,6.8,'1111122,1111122,1111122' 
TCOON,ioos:station:TCOON:518:1,2019-01-01T15:30:00Z,29.5150,-94.5133,0.0,5.6,39.0,6.7,'11111222,11111222,11111222' 
TCOON,ioos:station:TCOON:518:1,2019-01-01T15:36:00Z,29.5150,-94.5133,0.0,5.4,40.0,6.2,'11111222,11111222,11111222' 
TCOON,ioos:station:TCOON:518:1,2019-01-01T15:42:00Z,29.5150,-94.5133,0.0,5.1,31.0,6.2,'11111222,11111222,11111222' 
TCOON,ioos:station:TCOON:518:1,2019-01-01T15:48:00Z,29.5150,-94.5133,0.0,5.3,37.0,6.5,'11111222,11111222,11111222' 
TCOON,ioos:station:TCOON:518:1,2019-01-01T15:54:00Z,29.5150,-94.5133,0.0,5.2,38.0,6.0,'11111222,11111222,11111222' 
TCOON,ioos:station:TCOON:518:1,2019-01-01T16:00:00Z,29.5150,-94.5133,0.0,6.4,48.0,7.3,'11111222,11111222,11111222' 
TCOON,ioos:station:TCOON:518:1,2019-01-01T16:06:00Z,29.5150,-94.5133,0.0,6.3,49.0,7.3,'11111222,11111222,11111222' 
TCOON,ioos:station:TCOON:518:1,2019-01-01T16:12:00Z,29.5150,-94.5133,0.0,6.6,47.0,7.8,'11111222,11111222,11111222' 
TCOON,ioos:station:TCOON:518:1,2019-01-01T16:18:00Z,29.5150,-94.5133,0.0,6.2,48.0,7.9,'11111222,11111222,11111222' 
TCOON,ioos:station:TCOON:518:1,2019-01-01T16:24:00Z,29.5150,-94.5133,0.0,6.2,48.0,7.9,'1111122,1111122,1111122' 
TCOON,ioos:station:TCOON:518:1,2019-01-01T16:30:00Z,29.5150,-94.5133,0.0,5.8,49.0,7.2,'11111222,11111222,11111222' 
TCOON,ioos:station:TCOON:518:1,2019-01-01T16:36:00Z,29.5150,-94.5133,0.0,8.1,51.0,8.9,'11111222,11111222,11111222' 
TCOON,ioos:station:TCOON:518:1,2019-01-01T16:42:00Z,29.5150,-94.5133,0.0,6.9,54.0,9.1,'11111222,11111222,11111222' 
TCOON,ioos:station:TCOON:518:1,2019-01-01T16:48:00Z,29.5150,-94.5133,0.0,7.4,49.0,8.9,'11111222,11111222,11111222' 
TCOON,ioos:station:TCOON:518:1,2019-01-01T16:54:00Z,29.5150,-94.5133,0.0,8.1,54.0,9.1,'11111222,11111222,11111222' 
TCOON,ioos:station:TCOON:518:1,2019-01-01T17:00:00Z,29.5150,-94.5133,0.0,7.5,54.0,8.3,'11111222,11111222,11111222' 
TCOON,ioos:station:TCOON:518:1,2019-01-01T17:06:00Z,29.5150,-94.5133,0.0,6.9,49.0,8.0,'11111222,11111222,11111222' 
TCOON,ioos:station:TCOON:518:1,2019-01-01T17:12:00Z,29.5150,-94.5133,0.0,7.2,48.0,8.1,'11111222,11111222,11111222' 
TCOON,ioos:station:TCOON:518:1,2019-01-01T17:18:00Z,29.5150,-94.5133,0.0,6.3,49.0,7.4,'11111222,11111222,11111222' 
TCOON,ioos:station:TCOON:518:1,2019-01-01T17:24:00Z,29.5150,-94.5133,0.0,6.3,49.0,7.4,'1111122,1111122,1111122' 
TCOON,ioos:station:TCOON:518:1,2019-01-01T17:30:00Z,29.5150,-94.5133,0.0,6.9,47.0,8.1,'11111222,11111222,11111222' 
TCOON,ioos:station:TCOON:518:1,2019-01-01T17:36:00Z,29.5150,-94.5133,0.0,6.5,52.0,8.1,'11111222,11111222,11111222' 
TCOON,ioos:station:TCOON:518:1,2019-01-01T17:42:00Z,29.5150,-94.5133,0.0,6.5,53.0,8.5,'11111222,11111222,11111222' 
TCOON,ioos:station:TCOON:518:1,2019-01-01T17:48:00Z,29.5150,-94.5133,0.0,5.4,59.0,7.1,'11111222,11111222,11111222' 
TCOON,ioos:station:TCOON:518:1,2019-01-01T17:54:00Z,29.5150,-94.5133,0.0,6.1,54.0,7.2,'11111222,11111222,11111222' 
TCOON,ioos:station:TCOON:518:1,2019-01-01T18:00:00Z,29.5150,-94.5133,0.0,5.7,46.0,6.7,'11111222,11111222,11111222' 
TCOON,ioos:station:TCOON:518:1,2019-01-01T18:06:00Z,29.5150,-94.5133,0.0,5.7,47.0,6.9,'11111222,11111222,11111222' 
TCOON,ioos:station:TCOON:518:1,2019-01-01T18:12:00Z,29.5150,-94.5133,0.0,5.9,56.0,7.4,'11111222,11111222,11111222' 
TCOON,ioos:station:TCOON:518:1,2019-01-01T18:18:00Z,29.5150,-94.5133,0.0,6.0,55.0,7.0,'11111222,11111222,11111222' 
TCOON,ioos:station:TCOON:518:1,2019-01-01T18:24:00Z,29.5150,-94.5133,0.0,6.0,55.0,7.0,'1111122,1111122,1111122' 
TCOON,ioos:station:TCOON:518:1,2019-01-01T18:30:00Z,29.5150,-94.5133,0.0,6.1,49.0,6.7,'11111222,11111222,11111222' 
TCOON,ioos:station:TCOON:518:1,2019-01-01T18:36:00Z,29.5150,-94.5133,0.0,5.2,37.0,6.5,'11111222,11111222,11111222' 
TCOON,ioos:station:TCOON:518:1,2019-01-01T18:42:00Z,29.5150,-94.5133,0.0,5.1,44.0,5.7,'11111222,11111222,11111222' 
TCOON,ioos:station:TCOON:518:1,2019-01-01T18:48:00Z,29.5150,-94.5133,0.0,4.4,37.0,5.3,'11111222,11111222,11111222' 
TCOON,ioos:station:TCOON:518:1,2019-01-01T18:54:00Z,29.5150,-94.5133,0.0,4.8,39.0,5.7,'11111222,11111222,11111222' 
TCOON,ioos:station:TCOON:518:1,2019-01-01T19:00:00Z,29.5150,-94.5133,0.0,5.1,38.0,5.9,'11111222,11111222,11111222' 
TCOON,ioos:station:TCOON:518:1,2019-01-01T19:06:00Z,29.5150,-94.5133,0.0,4.6,43.0,5.8,'11111222,11111222,11111222' 
TCOON,ioos:station:TCOON:518:1,2019-01-01T19:12:00Z,29.5150,-94.5133,0.0,4.5,43.0,5.3,'11111222,11111222,11111222' 
TCOON,ioos:station:TCOON:518:1,2019-01-01T19:18:00Z,29.5150,-94.5133,0.0,5.0,49.0,5.8,'11111222,11111222,11111222' 
TCOON,ioos:station:TCOON:518:1,2019-01-01T19:24:00Z,29.5150,-94.5133,0.0,5.0,49.0,5.8,'1111122,1111122,1111122' 
TCOON,ioos:station:TCOON:518:1,2019-01-01T19:30:00Z,29.5150,-94.5133,0.0,4.5,44.0,5.7,'11111222,11111222,11111222' 
TCOON,ioos:station:TCOON:518:1,2019-01-01T19:36:00Z,29.5150,-94.5133,0.0,5.4,40.0,6.2,'11111222,11111222,11111222' 
TCOON,ioos:station:TCOON:518:1,2019-01-01T19:42:00Z,29.5150,-94.5133,0.0,5.7,31.0,6.5,'11111222,11111222,11111222' 
TCOON,ioos:station:TCOON:518:1,2019-01-01T19:48:00Z,29.5150,-94.5133,0.0,5.3,46.0,7.1,'11111222,11111222,11111222' 
TCOON,ioos:station:TCOON:518:1,2019-01-01T19:54:00Z,29.5150,-94.5133,0.0,4.7,49.0,6.1,'11111222,11111222,11111222' 
TCOON,ioos:station:TCOON:518:1,2019-01-01T20:00:00Z,29.5150,-94.5133,0.0,5.0,39.0,5.9,'11111222,11111222,11111222' 
TCOON,ioos:station:TCOON:518:1,2019-01-01T20:06:00Z,29.5150,-94.5133,0.0,5.5,46.0,6.2,'11111222,11111222,11111222' 
TCOON,ioos:station:TCOON:518:1,2019-01-01T20:12:00Z,29.5150,-94.5133,0.0,4.9,38.0,5.6,'11111222,11111222,11111222' 
TCOON,ioos:station:TCOON:518:1,2019-01-01T20:18:00Z,29.5150,-94.5133,0.0,5.5,37.0,6.3,'11111222,11111222,11111222' 
TCOON,ioos:station:TCOON:518:1,2019-01-01T20:24:00Z,29.5150,-94.5133,0.0,5.5,37.0,6.3,'1111122,1111122,1111122' 
TCOON,ioos:station:TCOON:518:1,2019-01-01T20:30:00Z,29.5150,-94.5133,0.0,4.2,32.0,5.2,'11111222,11111222,11111222' 